Seward, AK

2:12 PM AKDT on April 21, 2018 (GMT -0800)
Seward

Weather History for PAWD - January, 2013

Change the Weather History Date:

Saturday, January 12, 2013

  Actual Average Record
Temperature  
Mean Temperature 34 °F -  
Max Temperature 37 °F 28 °F 48 °F (2015)
Min Temperature 30 °F 19 °F -3 °F (1980)
Degree Days  
Heating Degree Days 32    
Moisture  
Dew Point 33 °F    
Average Humidity 96    
Maximum Humidity 100    
Minimum Humidity 89    
Precipitation  
Precipitation 0.81 in - - ()
Sea Level Pressure  
Sea Level Pressure 30.09 in    
Wind  
Wind Speed 1 mph (NNW)    
Max Wind Speed 6 mph    
Max Gust Speed -    
Visibility 7 miles    
Events Rain    
Averages and records for this station are not official NWS values.
T = Trace of Precipitation, MM = Missing Value Source: NWS Daily Summary

Daily Weather History Graph

Daily Weather History Graph

Search for Another Location

Airport or City:

Astronomy

Jan. 12, 2013 Rise Set
Actual Time 9:49 AM AKST 4:23 PM AKST
Civil Twilight 8:56 AM AKST 5:16 PM AKST
Nautical Twilight 8:01 AM AKST 6:11 PM AKST
Astronomical Twilight 7:10 AM AKST 7:02 PM AKST
Moon 9:41 AM AKST (1/12) 6:43 PM AKST (1/12)
Length of Visible Light 8h 20m
Length of Day
6h 33m
New Moon, 2% of the Moon is Illuminated
Jan 12
New Moon
Jan 18
First Quarter
Jan 26
Full
Feb 3
Last Quarter
Feb 9
New

Hourly Weather History & Observations

Time (AKST) Temp. Windchill Dew Point Humidity Pressure Visibility Wind Dir Wind Speed Gust Speed Precip Events Conditions
12:35 AM 32.0 °F - 30.2 °F 93% 30.13 in 1.8 mi Calm Calm - N/A   Overcast
12:40 AM 30.2 °F - 30.2 °F 100% 30.14 in 0.8 mi Calm Calm - N/A   Mostly Cloudy
12:53 AM 32.0 °F - 30.9 °F 96% 30.15 in 1.0 mi Calm Calm - N/A   Overcast
12:59 AM 32.0 °F - 32.0 °F 100% 30.15 in 2.0 mi Calm Calm - N/A   Overcast
1:11 AM 32.0 °F - 30.2 °F 93% 30.16 in 1.5 mi Calm Calm - N/A   Overcast
1:18 AM 32.0 °F - 30.2 °F 93% 30.15 in 3.0 mi Calm Calm - N/A   Overcast
1:31 AM 32.0 °F - 30.2 °F 93% 30.16 in 2.5 mi Calm Calm - N/A   Overcast
1:39 AM 32.0 °F - 30.2 °F 93% 30.15 in 4.0 mi Calm Calm - N/A   Overcast
1:53 AM 32.0 °F - 32.0 °F 100% 30.16 in 4.0 mi Calm Calm - N/A   Overcast
3:02 AM 33.8 °F - 32.0 °F 93% 30.16 in 6.0 mi Calm Calm - 0.00 in Rain Light Rain
3:25 AM 33.8 °F - 32.0 °F 93% 30.16 in 6.0 mi Calm Calm - 0.00 in Rain Light Rain
3:53 AM 33.1 °F - 32.0 °F 96% 30.17 in 5.0 mi Calm Calm - 0.00 in Rain Light Rain
4:11 AM 33.8 °F 30.8 °F 32.0 °F 93% 30.15 in 5.0 mi North 3.5 mph - 0.00 in   Overcast
4:53 AM 34.0 °F - 33.1 °F 96% 30.15 in 5.0 mi Calm Calm - 0.00 in Rain Light Rain
5:25 AM 33.8 °F - 33.8 °F 100% 30.13 in 6.0 mi Calm Calm - 0.00 in Rain Light Rain
5:53 AM 35.1 °F - 34.0 °F 96% 30.12 in 10.0 mi Calm Calm - 0.00 in Rain Light Rain
6:01 AM 33.8 °F - 33.8 °F 100% 30.11 in 7.0 mi Calm Calm - 0.00 in Rain Light Rain
6:53 AM 35.1 °F - 33.1 °F 92% 30.11 in 10.0 mi Calm Calm - 0.00 in   Overcast
7:35 AM 33.8 °F 30.8 °F 33.8 °F 100% 30.09 in 10.0 mi West 3.5 mph - N/A   Overcast
7:45 AM 33.8 °F 30.8 °F 33.8 °F 100% 30.09 in 10.0 mi North 3.5 mph - N/A   Overcast
7:53 AM 34.0 °F - 33.1 °F 96% 30.09 in 10.0 mi Calm Calm - 0.01 in   Overcast
8:30 AM 33.8 °F - 33.8 °F 100% 30.08 in 9.0 mi Calm Calm - 0.01 in Rain Light Rain
8:53 AM 34.0 °F - 33.1 °F 96% 30.08 in 9.0 mi Calm Calm - 0.02 in Rain Light Rain
9:53 AM 34.0 °F - 33.1 °F 96% 30.09 in 6.0 mi Calm Calm - 0.04 in Rain Light Rain
10:46 AM 33.8 °F - 33.8 °F 100% 30.09 in 3.0 mi Calm Calm - 0.04 in Rain Light Rain
10:53 AM 34.0 °F 31.0 °F 33.1 °F 96% 30.09 in 4.0 mi ENE 3.5 mph - 0.05 in Rain Light Rain
11:04 AM 33.8 °F - 33.8 °F 100% 30.09 in 5.0 mi Calm Calm - 0.02 in Rain Light Rain
11:30 AM 35.6 °F 32.8 °F 35.6 °F 100% 30.08 in 6.0 mi WNW 3.5 mph - 0.05 in Rain Light Rain
11:53 AM 35.1 °F - 34.0 °F 96% 30.09 in 8.0 mi Calm Calm - 0.07 in Rain Light Rain
12:29 PM 35.6 °F 31.7 °F 35.6 °F 100% 30.09 in 6.0 mi North 4.6 mph - 0.02 in Rain Light Rain
12:40 PM 35.6 °F - 33.8 °F 93% 30.09 in 4.0 mi Calm Calm - 0.03 in Rain Light Rain
12:53 PM 36.0 °F - 35.1 °F 97% 30.09 in 6.0 mi Calm Calm - 0.08 in Rain Light Rain
1:53 PM 36.0 °F - 35.1 °F 97% 30.08 in 7.0 mi Calm Calm - 0.12 in Rain Light Rain
2:45 PM 35.6 °F - 35.6 °F 100% 30.07 in 10.0 mi Calm Calm - 0.06 in Rain Light Rain
2:53 PM 37.0 °F 32.4 °F 34.0 °F 89% 30.07 in 10.0 mi North 5.8 mph - 0.06 in Rain Light Rain
3:27 PM 35.6 °F 31.7 °F 33.8 °F 93% 30.06 in 8.0 mi NNW 4.6 mph - 0.03 in Rain Light Rain
3:41 PM 35.6 °F 30.7 °F 33.8 °F 93% 30.06 in 10.0 mi North 5.8 mph - 0.04 in Rain Light Rain
3:53 PM 36.0 °F 32.1 °F 34.0 °F 93% 30.06 in 10.0 mi NNW 4.6 mph - 0.05 in Rain Light Rain
4:03 PM 35.6 °F 31.7 °F 33.8 °F 93% 30.06 in 10.0 mi NW 4.6 mph - 0.00 in Rain Light Rain
4:11 PM 35.6 °F - 33.8 °F 93% 30.06 in 9.0 mi Calm Calm - 0.01 in Rain Light Rain
4:33 PM 35.6 °F 32.8 °F 33.8 °F 93% 30.05 in 7.0 mi WNW 3.5 mph - 0.02 in Rain Light Rain
4:53 PM 35.1 °F - 34.0 °F 96% 30.06 in 8.0 mi Calm Calm - 0.03 in Rain Light Rain
4:56 PM 35.6 °F - 33.8 °F 93% 30.05 in 9.0 mi Calm Calm - 0.01 in Rain Light Rain
5:53 PM 35.1 °F - 34.0 °F 96% 30.04 in 7.0 mi Calm Calm - 0.04 in Rain Light Rain
6:53 PM 35.1 °F - 34.0 °F 96% 30.03 in 9.0 mi North - - 0.10 in Rain Light Rain
7:53 PM 35.1 °F - 34.0 °F 96% 30.06 in 5.0 mi North - - 0.04 in Rain Light Rain
8:00 PM 33.8 °F - 33.8 °F 100% 30.06 in 5.0 mi Calm Calm - 0.00 in Rain Light Rain
8:53 PM 35.1 °F 32.2 °F 34.0 °F 96% 30.06 in 7.0 mi NNW 3.5 mph - 0.02 in Rain Light Rain
9:48 PM 35.6 °F 32.8 °F 33.8 °F 93% 30.05 in 10.0 mi NNW 3.5 mph - 0.03 in Rain Light Rain
9:53 PM 35.1 °F - 34.0 °F 96% 30.05 in 10.0 mi Calm Calm - 0.03 in Rain Light Rain
10:53 PM 35.1 °F - 34.0 °F 96% 30.01 in 8.0 mi Calm Calm - 0.03 in Rain Light Rain
11:53 PM 34.0 °F - 34.0 °F 100% 30.00 in 6.0 mi Calm Calm - 0.02 in Rain Light Rain